FLOCK 4E'-1 (46813 NORAD) Tracking and Keplerian Element Data

This shows tracking and keplerian element data for the satellite.

Feedback or suggestion? Click here.




ElementValue
Catalog46813
NameFLOCK 4E'-1
Epoch Orbit428
Epoch Day331.1939705
Epoch Year2020
RAAN31.2806
Inclination97.4971
Eccentricity0.0011972
Argument of Perigee227.6548
Mean Anonmoly218.2525
Mean Motion15.15508566
Decay Rate1.224E-05
L11 46813U 20077A 20331.19397050 .00001224 00000-0 68081-4 0 9997
L22 46813 97.4971 31.2806 0011972 227.6548 218.2525 15.15508566 4286

Live tracking and technical data element details for FLOCK 4E'-1 (NORAD 46813). FLOCK 4E'-1 can be tracked NOW for your location showing map with azimuth and elevation plus other details from your city location.

Track the satellite on the map from your city or location and see movement details for azimuth, elevation, latitude, longitude, range, height, and movement on the map or in text.







IsCatalogInMostPopularTable: catalog: 46813, numindb: 6
Update: records affected: 1



GetName: 46813 FLOCK 4E'-1

Hit Count: updated at: Thu, 26 Nov 2020 18:44:26 GMT